Location: ?????????
(54.7630°N, 39.4991°E)
Time: 01:18:44
(UTC+00:00)

Cosmos 1867 - Pass Details

Date: 14 April 2026
Orbit: 775 x 798 km, 65.0° (Epoch: 20 May)

Event Time Altitude Azimuth Distance (km) Brightness Sun altitude
Exits shadow 23:44:20 35° 200° (SSW) 1,272 4.1 -19.0°
Maximum altitude 23:46:37 66° 130° (SE) 866 3.7 -18.8°
Drops below altitude 10° 23:52:02 10° 49° (NE) 2,377 7.3 -18.3°
Sets 23:54:29 0° 47° (NE) 3,312 8.5 -18.1°
